Location: Brantley
(31.5822°N, 86.2569°W)
Time: 07:05:12
(UTC+00:00)

Vanguard 2 - Pass Details

Date: 17 February 2026
Orbit: 553 x 2896 km, 32.9° (Epoch: 9 March)

Event Time Altitude Azimuth Distance (km) Brightness Sun altitude
Rises 08:02:31 0° 200° (SSW) 5,246 - -55.5°
Reaches altitude 10° 08:09:16 10° 174° (S) 3,597 - -54.2°
Maximum altitude 08:12:18 12° 154° (SSE) 3,128 - -53.6°
Drops below altitude 10° 08:14:56 10° 133° (SE) 3,012 - -53.1°
Exits shadow 08:18:28 - 107° (ESE) 3,369 11.2 -52.4°
Sets 08:19:16 0° 102° (ESE) 3,522 11.4 -52.2°
